TimeCST,TemperatureF,Dew PointF,Humidity,Sea Level PressureIn,VisibilityMPH,Wind Direction,Wind SpeedMPH,Gust SpeedMPH,PrecipitationIn,Events,Conditions,WindDirDegrees,DateUTC
12:53 AM,26.1,23.0,88,30.24,7.0,SE,6.9,-,N/A,,Clear,130,2013-01-18 06:53:00
1:53 AM,27.0,24.1,89,30.19,7.0,South,9.2,-,N/A,,Clear,170,2013-01-18 07:53:00
2:53 AM,30.0,26.1,85,30.15,8.0,South,10.4,-,N/A,,Clear,190,2013-01-18 08:53:00
3:53 AM,32.0,27.0,82,30.09,9.0,SSW,17.3,-,N/A,,Clear,200,2013-01-18 09:53:00
4:53 AM,33.1,27.0,78,30.05,10.0,SSW,16.1,-,N/A,,Clear,200,2013-01-18 10:53:00
5:53 AM,34.0,27.0,75,30.02,10.0,SSW,13.8,-,N/A,,Clear,210,2013-01-18 11:53:00
6:53 AM,34.0,27.0,75,29.99,10.0,SSW,16.1,-,N/A,,Clear,210,2013-01-18 12:53:00
7:53 AM,34.0,26.1,73,29.95,10.0,SSW,20.7,-,N/A,,Clear,210,2013-01-18 13:53:00
8:53 AM,35.1,27.0,72,29.93,10.0,SSW,17.3,25.3,N/A,,Clear,210,2013-01-18 14:53:00
9:53 AM,39.0,28.0,65,29.95,10.0,SW,19.6,-,N/A,,Clear,230,2013-01-18 15:53:00
10:53 AM,41.0,28.0,60,29.92,10.0,SW,23.0,29.9,N/A,,Clear,230,2013-01-18 16:53:00
11:53 AM,43.0,28.9,58,29.90,10.0,WSW,25.3,-,N/A,,Clear,250,2013-01-18 17:53:00
12:53 PM,46.0,30.0,54,29.85,10.0,SW,18.4,-,N/A,,Clear,230,2013-01-18 18:53:00
1:53 PM,48.0,30.0,50,29.84,10.0,WSW,19.6,25.3,N/A,,Clear,240,2013-01-18 19:53:00
2:53 PM,48.0,30.0,50,29.85,10.0,WSW,16.1,-,N/A,,Clear,250,2013-01-18 20:53:00
3:53 PM,48.0,30.9,52,29.86,10.0,West,11.5,-,N/A,,Clear,260,2013-01-18 21:53:00
4:53 PM,42.1,30.0,62,29.87,10.0,WSW,8.1,-,N/A,,Clear,250,2013-01-18 22:53:00
5:53 PM,39.0,30.0,70,29.90,10.0,NW,3.5,-,N/A,,Clear,310,2013-01-18 23:53:00
6:53 PM,35.1,28.0,76,29.90,10.0,SW,6.9,-,N/A,,Clear,230,2013-01-19 00:53:00
7:53 PM,34.0,28.0,79,29.89,10.0,SW,10.4,-,N/A,,Clear,220,2013-01-19 01:53:00
8:53 PM,34.0,28.0,79,29.89,10.0,WSW,4.6,-,N/A,,Clear,250,2013-01-19 02:53:00
9:53 PM,34.0,28.0,79,29.87,10.0,SW,8.1,-,N/A,,Clear,230,2013-01-19 03:53:00
10:53 PM,34.0,30.0,85,29.86,10.0,SW,4.6,-,N/A,,Clear,220,2013-01-19 04:53:00
11:53 PM,36.0,30.0,79,29.83,10.0,WSW,6.9,-,N/A,,Clear,240,2013-01-19 05:53:00